[[{"header":{"parameterUnit":"m.s-1","parameterCategory":1,"la1":30.2991,"la2":30.254,"lo1":-89.0895,"lo2":-89.0444,"dy":0.0017,"dx":0.0017,"nx":28,"ny":28,"refTime":"2024-06-04T09:00:00:Z","depth":0,"parameterNumber":2,"parameterNumberName":"U-component_of_WINDS"},"data":[0,0,0,0,0,0,0,0,0,0,0,0,0,0,0,0,0,0,0,0,0,0,0,0,0,0,0,0,0,0,0,0,0,0,0,0,0,0,0,0,0,0,0,0,0,0,0,0,0,0,0,0,0,0,0,0,0,0,-1.723,-1.723,0,-1.7238,-1.7238,-1.7238,-1.7224,-1.7224,-1.7223,-1.7223,-1.7231,-1.7232,-1.7232,0,0,0,0,0,0,0,0,0,0,0,0,0,-1.7203,-1.7203,-1.723,-1.723,-1.723,-1.7238,-1.7238,-1.7238,-1.7224,-1.7224,-1.7223,-1.7222,-1.7231,-1.7232,-1.7232,0,0,0,0,0,0,0,0,0,0,0,0,0,-1.7213,-1.7204,-1.723,-1.7224,-1.7224,-1.7238,-1.7238,-1.7238,-1.7224,-1.7224,-1.7223,-1.7222,-1.7231,-1.7232,-1.7233,-1.7253,0,0,-1.7236,-1.7236,0,0,0,0,0,0,0,0,-1.7213,-1.7214,-1.7225,-1.7224,-1.7224,-1.7229,-1.7232,-1.7243,-1.7225,-1.7224,-1.7223,-1.7222,-1.7231,-1.7232,-1.7235,-1.7254,-1.7254,-1.7236,-1.7236,-1.7237,-1.7237,0,0,0,0,0,0,0,-1.7212,-1.7214,-1.7233,-1.7225,-1.7224,-1.7221,-1.7222,-1.7234,-1.7231,-1.7224,-1.7223,-1.7224,-1.7231,-1.7234,-1.7235,-1.7254,-1.7236,-1.7237,-1.7237,-1.7238,-1.7291,-1.7292,0,0,0,0,0,0,-1.7212,-1.7213,-1.7233,-1.7233,-1.7216,-1.7222,-1.7223,-1.7228,-1.7231,-1.7231,-1.7225,-1.7223,-1.7233,-1.7234,-1.7235,-1.726,-1.7237,-1.7238,-1.7238,-1.7291,-1.7292,-1.7292,0,0,0,0,0,0,-1.7211,-1.7214,-1.7233,-1.7223,-1.7225,-1.7224,-1.723,-1.7229,-1.7232,-1.7232,-1.7231,-1.7229,-1.7232,-1.7234,-1.7249,-1.726,-1.7238,-1.7239,-1.729,-1.7291,-1.7292,-1.731,0,0,0,0,0,0,-1.7211,-1.7214,-1.7221,-1.7223,-1.7226,-1.7246,-1.723,-1.723,-1.7234,-1.7232,-1.7235,-1.7235,-1.7232,-1.7248,-1.725,-1.7261,-1.724,-1.7289,-1.729,-1.7292,-1.7308,-1.7312,-1.7314,0,0,0,0,0,-1.721,-1.7226,-1.7221,-1.7224,-1.7235,-1.7246,-1.7248,-1.7244,-1.7235,-1.7243,-1.7243,-1.7235,-1.7259,-1.7249,-1.7252,-1.7264,-1.7288,-1.729,-1.7291,-1.7307,-1.7311,-1.7314,0,0,0,0,0,0,-1.7224,-1.7226,-1.7221,-1.7238,-1.7242,-1.7244,-1.7253,-1.7248,-1.7255,-1.7253,-1.7247,-1.7248,-1.7265,-1.7266,-1.7255,-1.7285,-1.7272,-1.7274,-1.7283,-1.7287,-1.729,-1.7289,-1.7241,0,0,0,0,0,-1.7229,-1.7238,-1.7239,-1.7254,-1.7257,-1.7255,-1.726,-1.7256,-1.726,-1.7262,-1.7263,-1.7267,-1.7276,-1.7282,-1.7289,-1.7309,-1.731,-1.7318,-1.7322,-1.7324,-1.7326,-1.7337,-1.7341,-1.7299,-1.7298,-1.7298,0,0,-1.724,-1.7242,-1.7248,-1.7257,-1.726,-1.727,-1.7256,-1.7267,-1.7274,-1.7264,-1.7278,-1.7279,-1.7284,-1.7301,-1.7309,-1.7303,-1.7338,-1.7326,-1.7328,-1.7329,-1.734,-1.7344,-1.7347,-1.73,-1.73,-1.7299,0,0,-1.7264,-1.7267,-1.728,-1.7283,-1.7288,-1.7287,-1.729,-1.7293,-1.7294,-1.7308,-1.7301,-1.731,-1.7324,-1.7328,-1.7332,-1.736,-1.7353,-1.7363,-1.7379,-1.739,-1.7393,-1.7396,-1.7406,-1.741,-1.7365,-1.7365,-1.7365,0,-1.7277,-1.7291,-1.7287,-1.7298,-1.7303,-1.7295,-1.7308,-1.7312,-1.7319,-1.7323,-1.7316,-1.7335,-1.7337,-1.7356,-1.7363,-1.7367,-1.7371,-1.7362,-1.7393,-1.7396,-1.7398,-1.7408,-1.7412,-1.7366,-1.7366,-1.7366,-1.7366,0,-1.7306,-1.7316,-1.7326,-1.7334,-1.734,-1.7352,-1.7351,-1.7358,-1.7354,-1.7354,-1.737,-1.7373,-1.7382,-1.7386,-1.7383,-1.7405,-1.7401,-1.7394,-1.7381,-1.7404,-1.7413,-1.7416,-1.7368,-1.7367,-1.7367,-1.7367,0,0,-1.7338,-1.7344,-1.7348,-1.7352,-1.7357,-1.7365,-1.7378,-1.7387,-1.7393,-1.7399,-1.7409,-1.7423,-1.7417,-1.7421,-1.7419,-1.7428,-1.7451,-1.742,-1.742,-1.7425,-1.7476,-1.7481,-1.7485,-1.7447,-1.7448,-1.7448,-1.7476,0,-1.7362,-1.7384,-1.7381,-1.7402,-1.7412,-1.7405,-1.7416,-1.7421,-1.7422,-1.7431,-1.7432,-1.7442,-1.7433,-1.7435,-1.7445,-1.7446,-1.7461,-1.7444,-1.7457,-1.7458,-1.7455,-1.749,-1.7495,-1.752,-1.7479,-1.748,-1.748,0,-1.7393,-1.74,-1.7422,-1.7427,-1.7431,-1.7441,-1.745,-1.7458,-1.7464,-1.7464,-1.747,-1.7466,-1.748,-1.7468,-1.7486,-1.7475,-1.7481,-1.7482,-1.7483,-1.7483,-1.747,-1.7491,-1.7528,-1.7532,-1.7486,-1.7485,-1.7485,0,-1.7414,-1.7429,-1.7444,-1.7448,-1.7454,-1.7462,-1.7465,-1.747,-1.7476,-1.7484,-1.7488,-1.7497,-1.7502,-1.751,-1.7509,-1.75,-1.7528,-1.7516,-1.7528,-1.7528,-1.7534,-1.7533,-1.7572,-1.7538,-1.7538,-1.7538,-1.7538,0,-1.7441,-1.7454,-1.7454,-1.7463,-1.7479,-1.7477,-1.7492,-1.7494,-1.75,-1.751,-1.7505,-1.7514,-1.7513,-1.7523,-1.7522,-1.7538,-1.754,-1.7541,-1.754,-1.7541,-1.7541,-1.7544,-1.7542,-1.7539,-1.7539,-1.7539,-1.7539,0,-1.7466,-1.7467,-1.7483,-1.7488,-1.749,-1.7501,-1.7506,-1.7515,-1.7516,-1.7529,-1.7532,-1.7534,-1.7545,-1.7545,-1.7558,-1.7558,-1.7577,-1.7575,-1.7575,-1.7575,-1.7588,-1.7586,-1.7629,-1.7635,-1.7598,-1.7598,-1.7598,0,-1.7483,-1.7493,-1.75,-1.7506,-1.751,-1.752,-1.7527,-1.7526,-1.7533,-1.7541,-1.7549,-1.7561,-1.7569,-1.7588,-1.7591,-1.7601,-1.7599,-1.7613,-1.76,-1.7601,-1.7599,-1.7598,-1.7599,-1.7615,-1.7616,-1.7616,-1.7616,0,-1.7513,-1.7513,-1.7522,-1.7532,-1.7539,-1.7547,-1.7554,-1.756,-1.756,-1.7568,-1.758,-1.7586,-1.76,-1.7612,-1.7622,-1.7625,-1.7621,-1.7621,-1.7624,-1.7625,-1.7624,-1.7624,-1.7582,-1.7619,-1.7619,-1.7619,-1.7619,-1.7619,-1.7534,-1.7544,-1.755,-1.7561,-1.7566,-1.7573,-1.7582,-1.7585,-1.7595,-1.7606,-1.7605,-1.7618,-1.7625,-1.7639,-1.7643,-1.7654,-1.7649,-1.7654,-1.7655,-1.7657,-1.7658,-1.7623,-1.7656,-1.7656,-1.7656,-1.7656,-1.7656,0,-1.7564,-1.7568,-1.7578,-1.7588,-1.7597,-1.7593,-1.7601,-1.7608,-1.762,-1.7627,-1.7636,-1.765,-1.7662,-1.7666,-1.7677,-1.7685,-1.7683,-1.7688,-1.7687,-1.7688,-1.7662,-1.7657,-1.7689,-1.7689,-1.7689,-1.7689,-1.7689,-1.7689,-1.758,-1.7596,-1.7597,-1.7616,-1.762,-1.7633,-1.7638,-1.7644,-1.765,-1.7666,-1.7676,-1.7678,-1.7685,-1.7696,-1.7707,-1.7708,-1.7712,-1.7717,-1.7718,-1.7693,-1.769,-1.7686,-1.7682,-1.7718,-1.7719,-1.7743,-1.7743,-1.7743]},{"header":{"parameterUnit":"m.s-1","parameterCategory":1,"la1":30.2991,"la2":30.254,"lo1":-89.0895,"lo2":-89.0444,"dy":0.0017,"dx":0.0017,"nx":28,"ny":28,"refTime":"2024-06-04T09:00:00:Z","depth":0,"parameterNumber":3,"parameterNumberName":"V-component_of_WINDS"},"data":[0,0,0,0,0,0,0,0,0,0,0,0,0,0,0,0,0,0,0,0,0,0,0,0,0,0,0,0,0,0,0,0,0,0,0,0,0,0,0,0,0,0,0,0,0,0,0,0,0,0,0,0,0,0,0,0,0,0,5.7534,5.7534,0,5.7569,5.7569,5.7569,5.7516,5.7514,5.7512,5.7511,5.7542,5.7545,5.7548,0,0,0,0,0,0,0,0,0,0,0,0,0,5.7417,5.7419,5.7533,5.7534,5.7534,5.7569,5.7569,5.7569,5.7516,5.7514,5.7512,5.751,5.7542,5.7545,5.7548,0,0,0,0,0,0,0,0,0,0,0,0,0,5.7461,5.742,5.7533,5.7512,5.7511,5.7568,5.7569,5.757,5.7517,5.7514,5.7511,5.7509,5.7541,5.7544,5.7548,5.7627,0,0,5.756,5.7562,0,0,0,0,0,0,0,0,5.7459,5.7465,5.7515,5.7514,5.7512,5.7535,5.7539,5.7589,5.7518,5.7514,5.7511,5.7507,5.7542,5.7546,5.7558,5.7629,5.763,5.756,5.7563,5.7564,5.7565,0,0,0,0,0,0,0,5.7456,5.7464,5.7547,5.7516,5.7514,5.7499,5.7503,5.7548,5.7543,5.7514,5.7511,5.7516,5.7541,5.7555,5.7558,5.7631,5.756,5.7564,5.7566,5.7567,5.7768,5.7771,0,0,0,0,0,0,5.7456,5.7461,5.7546,5.7548,5.7478,5.7504,5.7508,5.7531,5.7543,5.7542,5.7518,5.7513,5.7549,5.7554,5.7559,5.7653,5.7564,5.7568,5.757,5.7765,5.7768,5.7772,0,0,0,0,0,0,5.7453,5.7464,5.7545,5.7504,5.7513,5.7509,5.7535,5.7533,5.7546,5.7545,5.7544,5.7534,5.7547,5.7554,5.7611,5.7653,5.757,5.7573,5.7761,5.7766,5.777,5.7841,0,0,0,0,0,0,5.745,5.7463,5.7494,5.7505,5.7516,5.7597,5.7538,5.7535,5.7554,5.7548,5.7559,5.7559,5.7546,5.7606,5.7615,5.7657,5.7576,5.7757,5.7763,5.7769,5.7834,5.7847,5.7858,0,0,0,0,0,5.7446,5.7512,5.7496,5.7506,5.7554,5.76,5.7606,5.7591,5.7557,5.7588,5.7587,5.7558,5.7647,5.7612,5.7622,5.7666,5.7755,5.7762,5.7768,5.7829,5.7845,5.7857,0,0,0,0,0,0,5.7504,5.7513,5.7495,5.7566,5.7583,5.7591,5.7629,5.7607,5.7632,5.7625,5.7604,5.7607,5.7669,5.7673,5.7633,5.7743,5.7695,5.7704,5.7738,5.7753,5.7764,5.7762,5.7579,0,0,0,0,0,5.7525,5.7563,5.7568,5.763,5.7639,5.7633,5.7652,5.7639,5.7655,5.7661,5.7664,5.768,5.7711,5.7732,5.7761,5.7835,5.7836,5.787,5.7882,5.7891,5.7899,5.7939,5.7954,5.7794,5.7794,5.7794,0,0,5.7569,5.7579,5.7603,5.7642,5.7653,5.7692,5.7639,5.7681,5.7709,5.7667,5.7722,5.7725,5.774,5.7807,5.7836,5.7812,5.7944,5.79,5.7907,5.791,5.7947,5.7962,5.7976,5.7799,5.7798,5.7797,0,0,5.7669,5.768,5.7733,5.7746,5.7764,5.776,5.7773,5.7784,5.7785,5.784,5.7809,5.7841,5.7895,5.7908,5.7921,5.8027,5.8001,5.8036,5.8097,5.8136,5.8148,5.8159,5.8197,5.8211,5.8044,5.8045,5.8045,0,5.7721,5.7779,5.7763,5.7808,5.7826,5.7791,5.7844,5.7857,5.7883,5.7896,5.7869,5.7937,5.7945,5.8013,5.8039,5.8051,5.8065,5.8035,5.8148,5.8159,5.8169,5.8205,5.8219,5.8049,5.8048,5.8048,5.8048,0,5.7841,5.7882,5.7922,5.7951,5.7973,5.8022,5.8013,5.8037,5.8022,5.802,5.8076,5.8084,5.8115,5.813,5.8115,5.8197,5.8181,5.8152,5.8103,5.8189,5.8222,5.8235,5.8055,5.8053,5.8052,5.8051,0,0,5.7978,5.7998,5.8013,5.8025,5.8043,5.8074,5.8121,5.8152,5.8173,5.8192,5.8231,5.8278,5.8251,5.8266,5.8253,5.8287,5.837,5.8253,5.8253,5.8275,5.846,5.8483,5.8499,5.8353,5.8356,5.8358,5.8459,0,5.8077,5.8161,5.8148,5.8228,5.8265,5.8233,5.8273,5.8288,5.8288,5.8318,5.8316,5.8351,5.8312,5.8321,5.8354,5.8353,5.8407,5.8346,5.8388,5.839,5.8385,5.8516,5.8539,5.8634,5.8472,5.8474,5.8475,0,5.8205,5.8231,5.8315,5.8328,5.8342,5.838,5.8407,5.8437,5.8453,5.845,5.8468,5.8448,5.8494,5.8445,5.8508,5.8467,5.8483,5.8486,5.8489,5.8492,5.8438,5.8523,5.8664,5.8679,5.8496,5.8494,5.8493,0,5.8296,5.8352,5.8409,5.8421,5.8437,5.8464,5.8472,5.8485,5.8505,5.8528,5.8541,5.8569,5.8584,5.8606,5.8594,5.856,5.8659,5.8609,5.8657,5.8658,5.868,5.8678,5.8826,5.869,5.869,5.869,5.869,0,5.8409,5.8462,5.8451,5.8486,5.8544,5.8529,5.8586,5.8589,5.8602,5.8636,5.8609,5.8642,5.8625,5.8656,5.8647,5.87,5.8707,5.8706,5.8703,5.8708,5.8709,5.8719,5.8712,5.8694,5.8693,5.8692,5.8692,0,5.8521,5.8516,5.8577,5.8588,5.8592,5.8634,5.8642,5.8675,5.8672,5.8717,5.8726,5.8722,5.8757,5.8748,5.8786,5.878,5.8847,5.8836,5.8843,5.884,5.8889,5.8884,5.9048,5.9069,5.892,5.8921,5.8922,0,5.8593,5.8633,5.8649,5.8671,5.8682,5.8717,5.8738,5.8724,5.8745,5.8767,5.8797,5.883,5.8856,5.8914,5.8914,5.8943,5.8932,5.8987,5.8936,5.8941,5.8933,5.8931,5.8935,5.8997,5.8999,5.9001,5.9002,0,5.8722,5.8718,5.8749,5.878,5.8805,5.8828,5.8848,5.8867,5.8855,5.8881,5.8918,5.8938,5.8978,5.9011,5.9038,5.9044,5.9021,5.9018,5.9031,5.9037,5.9039,5.9039,5.8871,5.9014,5.9013,5.9012,5.9011,5.9011,5.8817,5.8851,5.8868,5.8903,5.8917,5.8937,5.8969,5.8971,5.9001,5.9034,5.9023,5.9065,5.908,5.9113,5.9123,5.9155,5.9134,5.9152,5.9157,5.9162,5.9168,5.9034,5.916,5.916,5.9159,5.9159,5.9159,0,5.8944,5.8954,5.8987,5.9017,5.9045,5.9022,5.9043,5.9067,5.9105,5.9122,5.9148,5.919,5.9223,5.9225,5.9255,5.928,5.9271,5.9289,5.9287,5.9289,5.9185,5.9171,5.9296,5.9296,5.9296,5.9296,5.9296,5.9296,5.9014,5.9071,5.9069,5.9132,5.9141,5.9183,5.9197,5.9215,5.9228,5.9277,5.9304,5.9306,5.9317,5.9347,5.9376,5.9376,5.9388,5.941,5.9406,5.931,5.9296,5.9283,5.927,5.9413,5.9413,5.9507,5.9508,5.9508]}]]